Aérodrome :
LOGIN :

S'inscrire | Disclaimer

   EN    FR    IT 

 










Légende :    VFR   VFR Marginal   IFR   IFR Intensif   IFR Très Intensif
Visi : 
Plafond : 
>= 8 km
>= 3000ft
5 à 8 km
1000 à 3000 ft
1500m à 5 km
500 à 1000 ft
800 à 1500m
200 à 500 ft
< 800m
< 200 ft
Symboles :   Orages  Brouillard  Fortes neiges  Fortes précipitations  Vent > 20 kt
SIGMETs :   Divers  Orages  Givrage  Turbulence  Onde Orograph.  Cendres Volcan.







- Altitude de l'aérodrome : 2265 ft
- Code IATA : CZL


DABC - Mohamed Boudiaf Int. Constantine

DERNIER METAR :
  • 202000Z 20002KT 9999 FEW033 13/11 Q1021

METARs EXPIRÉS :
  • 201930Z 00000KT 9999 FEW033 13/11 Q1021
  • 201900Z 05003KT 9999 FEW033 15/12 Q1020
  • 201830Z 12003KT 060V150 9999 FEW033 15/11 Q1020
  • 201800Z 04003KT 340V080 9999 FEW026 15/11 Q1020
  • 201730Z 06006KT 9999 FEW020TCU SCT026 17/12 Q1020

TAF TAF DABC
Valide du 20 à 18h jusqu'au 21 à 18h UTC


201700Z 2018/2118 05012KT 8000 FEW016 SCT026
TEMPO 2018/2022 FEW023CB
BECMG 2021/2023 32006KT
TEMPO 2103/2108 2000 BR SCT008
Pas de NOTAMs connus pour ce terrain.



MET'MAP, la Météo Aéronautique d'un coup d'oeil ! - Copyright ORBIFLY Décembre 2007 - Disclaimer

ORBIFLY MET'MAP TEAM :

Programmation & Développement : Alexandra Zaïnal
Conception & Développement : Baudouin d'Aumeries
Co-Programmation & Développement : Marc-Olivier Méhu
Soutien technique & logistique : Manuel Goepfert

Contact : metmap@orbifly.com




SOURCES & CREDITS :

   NOAA